Find Starlink 32925

NORAD ID: 63091 Int'l Des: 2025-037 Owner: SPXS Country: US Constellation: starlink operational
LEOCIRCULAR

Current View

Loading 3D Globe...

About Starlink 32925

Starlink 32925 (NORAD 63091) is a starlink constellation satellite (v2 mini) launched Feb 23, 2025 by SPXS of US. It operates in LEO, CIRCULAR orbit with a mass of 730.00 kg.

Upcoming Passes

Passes for default location (London). Set your location on the main map for personalized predictions.

Altitude History

Loading altitude history...

Two-Line Element Set

1 63091U 25037Q 26237.37538017 .00005300 00000-0 45161-3 0 9998
2 63091 70.0011 288.9721 0003936 272.4878 87.5831 14.98332642 83810
Epoch: Aug 25, 2026 • Age: 14 hours

Current Status

Altitude 590.4 km
Apogee / Perigee N/A
Velocity 7.57 km/s
Sub-Earth Point -55.01°S, 179.01°W
Launch Date Feb 23, 2025
Age 1.5 years
Type internet

Technical Details

Classification Payload
Mass 730.00 kg
Dry Mass 700.00 kg
Total Mass 730.00 kg
Length 0.30 m
Diameter 4.10 m
Span 29.00 m
Shape Box + pan
Manufacturer SPXS
Bus Type Starlink V2M
Phase Status In Orbit
Owner/State SPXS/US

Most Searched